STARLINK-11306 [DTC] (61254 NORAD) Tracking and Keplerian Element Data

This shows tracking and keplerian element data for the satellite.

Feedback or suggestion? Click here.




ElementValue
Catalog61254
NameSTARLINK-11306 [DTC]
Epoch Orbit403
Epoch Day286.91668981
Epoch Year2024
RAAN64.9315
Inclination53.1627
Eccentricity0.0001456
Argument of Perigee82.6507
Mean Anonmoly69.7295
Mean Motion15.81462504
Decay Rate0.00026356
L11 61254U 24175M 24286.91668981 .00026356 00000+0 13302-3 0 9990
L22 61254 53.1627 64.9315 0001456 82.6507 69.7295 15.81462504 4037



Live tracking and technical data element details for STARLINK-11306 [DTC] (NORAD 61254). STARLINK-11306 [DTC] can be tracked NOW for your location showing map with azimuth and elevation plus other details from your city location.







IsCatalogInMostPopularTable: catalog: 61254, numindb: 23
Update: records affected: 1



GetName: 61254 STARLINK-11306 [DTC]

Hit Count: updated at: Wed, 04 Dec 2024 09:37:30 GMT